Time,TemperatureF,DewpointF,PressureIn,WindDirection,WindDirectionDegrees,WindSpeedMPH,WindSpeedGustMPH,Humidity,HourlyPrecipIn,Conditions,Clouds,dailyrainin,SoftwareType,DateUTC
2013-01-11 00:02:00,37.0,33.0,29.77,NNW,334,7.0,-999.0,86,-99.99,,,-99.99,,2013-01-11 08:02:00,
2013-01-11 00:11:00,37.0,34.0,29.77,NNE,32,7.0,-999.0,87,-99.99,,,-99.99,,2013-01-11 08:11:00,
2013-01-11 00:22:00,37.0,34.0,29.77,NNE,32,7.0,-999.0,87,-99.99,,,-99.99,,2013-01-11 08:22:00,
2013-01-11 00:32:00,37.0,33.0,29.77,NE,42,6.0,-999.0,86,-99.99,,,-99.99,,2013-01-11 08:32:00,
2013-01-11 00:42:00,37.0,33.0,29.77,NE,42,6.0,-999.0,86,-99.99,,,-99.99,,2013-01-11 08:42:00,
2013-01-11 00:52:00,37.0,33.0,29.77,NNW,344,5.0,-999.0,86,-99.99,,,-99.99,,2013-01-11 08:52:00,
2013-01-11 01:02:00,37.0,33.0,29.77,NNE,23,6.0,-999.0,86,-99.99,,,-99.99,,2013-01-11 09:02:00,
2013-01-11 01:11:00,37.0,33.0,29.77,NNE,23,6.0,-999.0,86,-99.99,,,-99.99,,2013-01-11 09:11:00,
2013-01-11 01:22:00,37.0,33.0,29.77,North,355,8.0,-999.0,86,-99.99,,,-99.99,,2013-01-11 09:22:00,
2013-01-11 01:32:00,37.0,33.0,29.77,NNE,17,8.0,-999.0,86,-99.99,,,-99.99,,2013-01-11 09:32:00,
2013-01-11 01:42:00,37.0,33.0,29.77,NNE,17,8.0,-999.0,86,-99.99,,,-99.99,,2013-01-11 09:42:00,
2013-01-11 01:52:00,37.0,33.0,29.77,North,355,7.0,-999.0,86,-99.99,,,-99.99,,2013-01-11 09:52:00,
2013-01-11 02:02:00,37.0,33.0,29.78,NNW,348,6.0,-999.0,86,-99.99,,,-99.99,,2013-01-11 10:02:00,
2013-01-11 02:11:00,37.0,33.0,29.78,NNW,348,6.0,-999.0,86,-99.99,,,-99.99,,2013-01-11 10:11:00,
2013-01-11 02:22:00,37.0,33.0,29.77,South,182,7.0,-999.0,86,-99.99,,,-99.99,,2013-01-11 10:22:00,
2013-01-11 02:32:00,37.0,33.0,29.77,NE,34,7.0,-999.0,86,-99.99,,,-99.99,,2013-01-11 10:32:00,
2013-01-11 02:42:00,37.0,33.0,29.77,NE,34,7.0,-999.0,86,-99.99,,,-99.99,,2013-01-11 10:42:00,
2013-01-11 02:52:00,37.0,34.0,29.77,NW,315,8.0,-999.0,87,-99.99,,,-99.99,,2013-01-11 10:52:00,
2013-01-11 03:02:00,37.0,34.0,29.77,NE,36,7.0,-999.0,88,-99.99,,,-99.99,,2013-01-11 11:02:00,
2013-01-11 03:11:00,37.0,34.0,29.77,NE,36,7.0,-999.0,88,-99.99,,,-99.99,,2013-01-11 11:11:00,
2013-01-11 03:22:00,37.0,34.0,29.77,North,349,6.0,-999.0,88,-99.99,,,-99.99,,2013-01-11 11:22:00,
2013-01-11 03:32:00,37.0,34.0,29.77,North,355,6.0,-999.0,88,-99.99,,,-99.99,,2013-01-11 11:32:00,
2013-01-11 03:42:00,37.0,34.0,29.77,North,355,6.0,-999.0,88,-99.99,,,-99.99,,2013-01-11 11:42:00,
2013-01-11 03:52:00,37.0,34.0,29.77,NNW,332,7.0,-999.0,88,-99.99,,,-99.99,,2013-01-11 11:52:00,
2013-01-11 04:02:00,37.0,34.0,29.77,North,355,7.0,-999.0,87,-99.99,,,-99.99,,2013-01-11 12:02:00,
2013-01-11 04:12:00,37.0,34.0,29.77,North,355,7.0,-999.0,87,-99.99,,,-99.99,,2013-01-11 12:12:00,
2013-01-11 04:22:00,37.0,34.0,29.77,North,350,8.0,-999.0,87,-99.99,,,-99.99,,2013-01-11 12:22:00,
2013-01-11 04:32:00,37.0,35.0,29.76,North,9,7.0,-999.0,92,-99.99,,,-99.99,,2013-01-11 12:32:00,
2013-01-11 04:42:00,37.0,35.0,29.76,North,9,7.0,-999.0,92,-99.99,,,-99.99,,2013-01-11 12:42:00,
2013-01-11 04:52:00,37.0,33.0,29.77,North,360,10.0,-999.0,85,-99.99,,,-99.99,,2013-01-11 12:52:00,
2013-01-11 05:02:00,37.0,33.0,29.77,NNE,17,8.0,-999.0,85,-99.99,,,-99.99,,2013-01-11 13:02:00,
2013-01-11 05:12:00,37.0,33.0,29.77,NNE,17,8.0,-999.0,85,-99.99,,,-99.99,,2013-01-11 13:12:00,
2013-01-11 05:22:00,37.0,33.0,29.77,NE,36,7.0,-999.0,84,-99.99,,,-99.99,,2013-01-11 13:22:00,
2013-01-11 05:32:00,37.0,33.0,29.77,NNE,12,8.0,-999.0,85,-99.99,,,-99.99,,2013-01-11 13:32:00,
2013-01-11 05:42:00,37.0,33.0,29.77,NNE,12,8.0,-999.0,85,-99.99,,,-99.99,,2013-01-11 13:42:00,
2013-01-11 05:52:00,37.0,33.0,29.77,NNE,14,6.0,-999.0,85,-99.99,,,-99.99,,2013-01-11 13:52:00,
2013-01-11 06:02:00,37.0,33.0,29.77,NNE,14,6.0,-999.0,85,-99.99,,,-99.99,,2013-01-11 14:02:00,
2013-01-11 06:11:00,37.0,33.0,29.77,NNE,14,6.0,-999.0,85,-99.99,,,-99.99,,2013-01-11 14:11:00,
2013-01-11 06:22:00,37.0,33.0,29.79,NNE,22,5.0,-999.0,86,-99.99,,,-99.99,,2013-01-11 14:22:00,
2013-01-11 06:33:00,37.0,33.0,29.79,NNE,20,5.0,-999.0,86,-99.99,,,-99.99,,2013-01-11 14:33:00,
2013-01-11 06:42:00,37.0,33.0,29.79,NNW,348,7.0,-999.0,85,-99.99,,,-99.99,,2013-01-11 14:42:00,
2013-01-11 06:53:00,37.0,33.0,29.79,NNW,348,7.0,-999.0,85,-99.99,,,-99.99,,2013-01-11 14:53:00,
2013-01-11 07:03:00,36.0,32.0,29.79,NNE,20,7.0,-999.0,84,-99.99,,,-99.99,,2013-01-11 15:03:00,
2013-01-11 07:12:00,36.0,32.0,29.79,NNE,19,5.0,-999.0,84,-99.99,,,-99.99,,2013-01-11 15:12:00,
2013-01-11 07:22:00,36.0,32.0,29.79,NNE,19,5.0,-999.0,84,-99.99,,,-99.99,,2013-01-11 15:22:00,
2013-01-11 07:32:00,36.0,31.0,29.80,North,360,5.0,-999.0,83,-99.99,,,-99.99,,2013-01-11 15:32:00,
2013-01-11 07:42:00,36.0,31.0,29.80,North,360,5.0,-999.0,83,-99.99,,,-99.99,,2013-01-11 15:42:00,
2013-01-11 07:52:00,36.0,31.0,29.80,North,355,4.0,-999.0,83,-99.99,,,-99.99,,2013-01-11 15:52:00,
2013-01-11 08:02:00,35.0,30.0,29.80,North,355,3.0,-999.0,83,-99.99,,,-99.99,,2013-01-11 16:02:00,
2013-01-11 08:12:00,35.0,30.0,29.80,NE,35,3.0,-999.0,83,-99.99,,,-99.99,,2013-01-11 16:12:00,
2013-01-11 08:22:00,35.0,30.0,29.80,NE,35,3.0,-999.0,83,-99.99,,,-99.99,,2013-01-11 16:22:00,
2013-01-11 08:32:00,36.0,31.0,29.81,North,355,3.0,-999.0,81,-99.99,,,-99.99,,2013-01-11 16:32:00,
2013-01-11 08:42:00,36.0,31.0,29.81,North,355,3.0,-999.0,81,-99.99,,,-99.99,,2013-01-11 16:42:00,
2013-01-11 08:52:00,37.0,31.0,29.82,NNE,28,2.0,-999.0,80,-99.99,,,-99.99,,2013-01-11 16:52:00,
2013-01-11 09:03:00,37.0,31.0,29.82,NNE,26,1.0,-999.0,79,-99.99,,,-99.99,,2013-01-11 17:03:00,
2013-01-11 09:12:00,38.0,32.0,29.82,North,355,2.0,-999.0,78,-99.99,,,-99.99,,2013-01-11 17:12:00,
2013-01-11 09:22:00,38.0,32.0,29.82,North,355,2.0,-999.0,78,-99.99,,,-99.99,,2013-01-11 17:22:00,
2013-01-11 09:33:00,38.0,31.0,29.82,NNE,26,2.0,-999.0,77,-99.99,,,-99.99,,2013-01-11 17:33:00,
2013-01-11 09:42:00,38.0,31.0,29.82,NNE,26,2.0,-999.0,77,-99.99,,,-99.99,,2013-01-11 17:42:00,
2013-01-11 09:52:00,38.0,32.0,29.83,NE,45,1.0,-999.0,78,-99.99,,,-99.99,,2013-01-11 17:52:00,
2013-01-11 10:03:00,39.0,32.0,29.83,NNW,340,1.0,-999.0,77,-99.99,,,-99.99,,2013-01-11 18:03:00,
2013-01-11 10:12:00,39.0,32.0,29.83,NNW,340,1.0,-999.0,77,-99.99,,,-99.99,,2013-01-11 18:12:00,
2013-01-11 10:22:00,39.0,32.0,29.83,North,9,2.0,-999.0,77,-99.99,,,-99.99,,2013-01-11 18:22:00,
2013-01-11 10:32:00,39.0,32.0,29.83,North,9,3.0,-999.0,77,-99.99,,,-99.99,,2013-01-11 18:32:00,
2013-01-11 10:42:00,39.0,32.0,29.83,North,9,3.0,-999.0,77,-99.99,,,-99.99,,2013-01-11 18:42:00,
2013-01-11 10:53:00,40.0,33.0,29.81,NNE,12,5.0,-999.0,76,-99.99,,,-99.99,,2013-01-11 18:53:00,
2013-01-11 11:02:00,40.0,33.0,29.81,NNW,327,7.0,-999.0,76,-99.99,,,-99.99,,2013-01-11 19:02:00,
2013-01-11 11:12:00,40.0,33.0,29.81,NNW,327,7.0,-999.0,76,-99.99,,,-99.99,,2013-01-11 19:12:00,
2013-01-11 11:22:00,40.0,33.0,29.81,NNW,342,6.0,-999.0,75,-99.99,,,-99.99,,2013-01-11 19:22:00,
2013-01-11 11:32:00,40.0,32.0,29.80,NW,326,7.0,-999.0,74,-99.99,,,-99.99,,2013-01-11 19:32:00,
2013-01-11 11:42:00,40.0,32.0,29.80,NW,326,7.0,-999.0,74,-99.99,,,-99.99,,2013-01-11 19:42:00,
2013-01-11 11:52:00,41.0,34.0,29.80,North,9,6.0,-999.0,75,-99.99,,,-99.99,,2013-01-11 19:52:00,
2013-01-11 12:02:00,41.0,33.0,29.79,NNE,30,6.0,-999.0,74,-99.99,,,-99.99,,2013-01-11 20:02:00,
2013-01-11 12:11:00,41.0,33.0,29.79,NNE,30,6.0,-999.0,74,-99.99,,,-99.99,,2013-01-11 20:11:00,
2013-01-11 12:22:00,41.0,34.0,29.79,North,5,7.0,-999.0,75,-99.99,,,-99.99,,2013-01-11 20:22:00,
2013-01-11 12:32:00,42.0,35.0,29.78,North,10,4.0,-999.0,75,-99.99,,,-99.99,,2013-01-11 20:32:00,
2013-01-11 12:42:00,42.0,35.0,29.78,North,10,4.0,-999.0,75,-99.99,,,-99.99,,2013-01-11 20:42:00,
2013-01-11 12:52:00,42.0,35.0,29.77,NNE,18,6.0,-999.0,75,-99.99,,,-99.99,,2013-01-11 20:52:00,
2013-01-11 13:02:00,42.0,34.0,29.77,North,360,4.0,-999.0,73,-99.99,,,-99.99,,2013-01-11 21:02:00,
2013-01-11 13:12:00,42.0,34.0,29.77,North,360,4.0,-999.0,73,-99.99,,,-99.99,,2013-01-11 21:12:00,
2013-01-11 13:22:00,42.0,35.0,29.76,North,355,2.0,-999.0,77,-99.99,,,-99.99,,2013-01-11 21:22:00,
2013-01-11 13:32:00,44.0,37.0,29.75,NNW,345,5.0,-999.0,76,-99.99,,,-99.99,,2013-01-11 21:32:00,
2013-01-11 13:42:00,44.0,37.0,29.75,NNW,345,5.0,-999.0,76,-99.99,,,-99.99,,2013-01-11 21:42:00,
2013-01-11 13:52:00,44.0,37.0,29.75,NNE,22,5.0,-999.0,75,-99.99,,,-99.99,,2013-01-11 21:52:00,
2013-01-11 14:02:00,43.0,36.0,29.75,NNE,14,4.0,-999.0,75,-99.99,,,-99.99,,2013-01-11 22:02:00,
2013-01-11 14:12:00,43.0,36.0,29.75,NNE,14,4.0,-999.0,75,-99.99,,,-99.99,,2013-01-11 22:12:00,
2013-01-11 14:22:00,44.0,37.0,29.75,NW,317,4.0,-999.0,75,-99.99,,,-99.99,,2013-01-11 22:22:00,
2013-01-11 14:33:00,43.0,36.0,29.75,NNE,25,4.0,-999.0,75,-99.99,,,-99.99,,2013-01-11 22:33:00,
2013-01-11 14:42:00,43.0,36.0,29.75,NNE,25,4.0,-999.0,75,-99.99,,,-99.99,,2013-01-11 22:42:00,
2013-01-11 14:52:00,43.0,36.0,29.74,NE,38,5.0,-999.0,77,-99.99,,,-99.99,,2013-01-11 22:52:00,
2013-01-11 15:02:00,45.0,38.0,29.74,NNW,345,4.0,-999.0,77,-99.99,,,-99.99,,2013-01-11 23:02:00,
2013-01-11 15:12:00,45.0,38.0,29.74,NNW,345,4.0,-999.0,77,-99.99,,,-99.99,,2013-01-11 23:12:00,
2013-01-11 15:22:00,44.0,37.0,29.74,NW,313,6.0,-999.0,77,-99.99,,,-99.99,,2013-01-11 23:22:00,
2013-01-11 15:32:00,43.0,37.0,29.74,NNW,333,7.0,-999.0,78,-99.99,,,-99.99,,2013-01-11 23:32:00,
2013-01-11 15:42:00,43.0,37.0,29.74,NNW,333,7.0,-999.0,78,-99.99,,,-99.99,,2013-01-11 23:42:00,
2013-01-11 15:53:00,42.0,36.0,29.73,North,350,7.0,-999.0,80,-99.99,,,-99.99,,2013-01-11 23:53:00,
2013-01-11 16:02:00,41.0,36.0,29.73,NNE,18,6.0,-999.0,83,-99.99,,,-99.99,,2013-01-12 00:02:00,
2013-01-11 16:12:00,41.0,37.0,29.73,ENE,57,4.0,-999.0,86,-99.99,,,-99.99,,2013-01-12 00:12:00,
2013-01-11 16:22:00,41.0,37.0,29.73,ENE,57,4.0,-999.0,86,-99.99,,,-99.99,,2013-01-12 00:22:00,
2013-01-11 16:32:00,40.0,37.0,29.73,NNW,333,6.0,-999.0,88,-99.99,,,-99.99,,2013-01-12 00:32:00,
2013-01-11 16:42:00,40.0,37.0,29.73,NNW,333,6.0,-999.0,88,-99.99,,,-99.99,,2013-01-12 00:42:00,
2013-01-11 16:52:00,40.0,37.0,29.73,NNW,342,6.0,-999.0,89,-99.99,,,-99.99,,2013-01-12 00:52:00,
2013-01-11 17:02:00,40.0,37.0,29.72,NNE,17,4.0,-999.0,90,-99.99,,,-99.99,,2013-01-12 01:02:00,
2013-01-11 17:12:00,40.0,37.0,29.72,NNE,17,4.0,-999.0,90,-99.99,,,-99.99,,2013-01-12 01:12:00,
2013-01-11 17:22:00,40.0,38.0,29.72,NNW,336,3.0,-999.0,91,-99.99,,,-99.99,,2013-01-12 01:22:00,
2013-01-11 17:32:00,39.0,37.0,29.72,North,350,3.0,-999.0,91,-99.99,,,-99.99,,2013-01-12 01:32:00,
2013-01-11 17:42:00,39.0,37.0,29.72,North,350,3.0,-999.0,91,-99.99,,,-99.99,,2013-01-12 01:42:00,
2013-01-11 17:52:00,39.0,37.0,29.71,North,360,4.0,-999.0,91,-99.99,,,-99.99,,2013-01-12 01:52:00,
2013-01-11 18:02:00,39.0,37.0,29.71,NNE,22,3.0,-999.0,92,-99.99,,,-99.99,,2013-01-12 02:02:00,
2013-01-11 18:11:00,39.0,37.0,29.71,NNE,22,3.0,-999.0,92,-99.99,,,-99.99,,2013-01-12 02:11:00,
2013-01-11 18:22:00,39.0,37.0,29.71,North,349,3.0,-999.0,92,-99.99,,,-99.99,,2013-01-12 02:22:00,
2013-01-11 18:32:00,39.0,37.0,29.71,NW,313,3.0,-999.0,93,-99.99,,,-99.99,,2013-01-12 02:32:00,
2013-01-11 18:42:00,39.0,37.0,29.71,NW,313,3.0,-999.0,93,-99.99,,,-99.99,,2013-01-12 02:42:00,
2013-01-11 18:52:00,39.0,37.0,29.71,NNW,340,4.0,-999.0,93,-99.99,,,-99.99,,2013-01-12 02:52:00,
2013-01-11 19:02:00,39.0,37.0,29.71,NNE,17,4.0,-999.0,94,-99.99,,,-99.99,,2013-01-12 03:02:00,
2013-01-11 19:11:00,39.0,37.0,29.71,NNE,17,4.0,-999.0,94,-99.99,,,-99.99,,2013-01-12 03:11:00,
2013-01-11 19:22:00,39.0,37.0,29.70,North,9,7.0,-999.0,94,-99.99,,,-99.99,,2013-01-12 03:22:00,
2013-01-11 19:32:00,39.0,37.0,29.71,NE,46,5.0,-999.0,94,-99.99,,,-99.99,,2013-01-12 03:32:00,
2013-01-11 19:42:00,39.0,37.0,29.71,NE,46,5.0,-999.0,94,-99.99,,,-99.99,,2013-01-12 03:42:00,
2013-01-11 19:52:00,39.0,37.0,29.70,North,351,6.0,-999.0,94,-99.99,,,-99.99,,2013-01-12 03:52:00,
2013-01-11 20:02:00,39.0,38.0,29.70,NNE,13,7.0,-999.0,95,-99.99,,,-99.99,,2013-01-12 04:02:00,
2013-01-11 20:11:00,39.0,38.0,29.70,NNE,13,7.0,-999.0,95,-99.99,,,-99.99,,2013-01-12 04:11:00,
2013-01-11 20:22:00,39.0,38.0,29.70,NNW,346,7.0,-999.0,95,-99.99,,,-99.99,,2013-01-12 04:22:00,
2013-01-11 20:32:00,39.0,38.0,29.70,NE,49,5.0,-999.0,95,-99.99,,,-99.99,,2013-01-12 04:32:00,
2013-01-11 20:42:00,39.0,38.0,29.70,NE,49,5.0,-999.0,95,-99.99,,,-99.99,,2013-01-12 04:42:00,
2013-01-11 20:52:00,38.0,37.0,29.70,NNE,20,6.0,-999.0,95,-99.99,,,-99.99,,2013-01-12 04:52:00,
2013-01-11 21:03:00,38.0,37.0,29.70,NNE,22,4.0,-999.0,95,-99.99,,,-99.99,,2013-01-12 05:03:00,
2013-01-11 21:12:00,38.0,37.0,29.70,NNE,22,4.0,-999.0,95,-99.99,,,-99.99,,2013-01-12 05:12:00,
2013-01-11 21:22:00,38.0,37.0,29.70,NW,314,7.0,-999.0,95,-99.99,,,-99.99,,2013-01-12 05:22:00,
2013-01-11 21:32:00,38.0,37.0,29.71,NNE,32,12.0,-999.0,95,-99.99,,,-99.99,,2013-01-12 05:32:00,
2013-01-11 21:42:00,38.0,37.0,29.71,NNE,32,12.0,-999.0,95,-99.99,,,-99.99,,2013-01-12 05:42:00,
2013-01-11 21:52:00,38.0,37.0,29.71,NNE,32,7.0,-999.0,95,-99.99,,,-99.99,,2013-01-12 05:52:00,
2013-01-11 22:02:00,38.0,37.0,29.71,NNW,339,4.0,-999.0,95,-99.99,,,-99.99,,2013-01-12 06:02:00,
2013-01-11 22:12:00,38.0,37.0,29.71,NNW,339,4.0,-999.0,95,-99.99,,,-99.99,,2013-01-12 06:12:00,
2013-01-11 22:22:00,38.0,37.0,29.71,NE,37,5.0,-999.0,95,-99.99,,,-99.99,,2013-01-12 06:22:00,
2013-01-11 22:32:00,38.0,37.0,29.70,NNW,338,4.0,-999.0,95,-99.99,,,-99.99,,2013-01-12 06:32:00,
2013-01-11 22:42:00,38.0,37.0,29.70,NNW,338,4.0,-999.0,95,-99.99,,,-99.99,,2013-01-12 06:42:00,
2013-01-11 22:52:00,38.0,37.0,29.70,NNW,338,4.0,-999.0,95,-99.99,,,-99.99,,2013-01-12 06:52:00,
2013-01-11 23:02:00,38.0,37.0,29.70,North,355,3.0,-999.0,95,-99.99,,,-99.99,,2013-01-12 07:02:00,
2013-01-11 23:11:00,38.0,37.0,29.70,NE,42,4.0,-999.0,95,-99.99,,,-99.99,,2013-01-12 07:11:00,
2013-01-11 23:22:00,38.0,37.0,29.70,NE,42,4.0,-999.0,95,-99.99,,,-99.99,,2013-01-12 07:22:00,
2013-01-11 23:32:00,38.0,37.0,29.70,NNE,18,3.0,-999.0,95,-99.99,,,-99.99,,2013-01-12 07:32:00,
2013-01-11 23:42:00,38.0,37.0,29.70,NNE,18,3.0,-999.0,95,-99.99,,,-99.99,,2013-01-12 07:42:00,
2013-01-11 23:52:00,38.0,37.0,29.70,NE,46,3.0,-999.0,95,-99.99,,,-99.99,,2013-01-12 07:52:00,